Time,TemperatureF,DewpointF,PressureIn,WindDirection,WindDirectionDegrees,WindSpeedMPH,WindSpeedGustMPH,Humidity,HourlyPrecipIn,Conditions,Clouds,dailyrainin,SolarRadiationWatts/m^2,SoftwareType,DateUTC
2013-05-30 00:03:00,76.0,72.0,-100.00,East,99,10.0,-999.0,86,0.00,,,-99.99,0.000000,,2013-05-30 04:03:00,
2013-05-30 00:13:00,77.0,73.0,-100.00,ESE,110,9.0,-999.0,85,0.00,,,-99.99,0.000000,,2013-05-30 04:13:00,
2013-05-30 00:23:00,77.0,73.0,-100.00,ESE,110,9.0,-999.0,85,0.00,,,-99.99,0.000000,,2013-05-30 04:23:00,
2013-05-30 00:33:00,78.0,72.0,-100.00,ESE,116,10.0,-999.0,82,0.00,,,-99.99,0.000000,,2013-05-30 04:33:00,
2013-05-30 00:42:00,79.0,72.0,-100.00,ESE,116,12.0,-999.0,79,0.00,,,-99.99,0.000000,,2013-05-30 04:42:00,
2013-05-30 00:53:00,79.0,72.0,-100.00,ESE,116,12.0,-999.0,79,0.00,,,-99.99,0.000000,,2013-05-30 04:53:00,
2013-05-30 01:02:00,79.0,72.0,-100.00,ESE,117,12.0,-999.0,78,0.00,,,-99.99,0.000000,,2013-05-30 05:02:00,
2013-05-30 01:12:00,79.0,72.0,-100.00,ESE,119,10.0,-999.0,78,0.00,,,-99.99,0.000000,,2013-05-30 05:12:00,
2013-05-30 01:22:00,79.0,72.0,-100.00,ESE,119,10.0,-999.0,78,0.00,,,-99.99,0.000000,,2013-05-30 05:22:00,
2013-05-30 01:32:00,79.0,72.0,-100.00,ESE,116,12.0,-999.0,79,0.00,,,-99.99,0.000000,,2013-05-30 05:32:00,
2013-05-30 01:42:00,79.0,72.0,-100.00,ESE,117,11.0,-999.0,78,0.00,,,-99.99,0.000000,,2013-05-30 05:42:00,
2013-05-30 01:52:00,79.0,72.0,-100.00,ESE,117,11.0,-999.0,78,0.00,,,-99.99,0.000000,,2013-05-30 05:52:00,
2013-05-30 02:01:00,79.0,72.0,-100.00,ESE,123,9.0,-999.0,79,0.00,,,-99.99,0.000000,,2013-05-30 06:01:00,
2013-05-30 02:12:00,79.0,72.0,-100.00,ESE,117,13.0,-999.0,79,0.00,,,-99.99,0.000000,,2013-05-30 06:12:00,
2013-05-30 02:22:00,79.0,72.0,-100.00,ESE,117,13.0,-999.0,79,0.00,,,-99.99,0.000000,,2013-05-30 06:22:00,
2013-05-30 02:32:00,79.0,72.0,-100.00,ESE,119,11.0,-999.0,79,0.00,,,-99.99,0.000000,,2013-05-30 06:32:00,
2013-05-30 02:42:00,79.0,71.0,-100.00,ESE,115,11.0,-999.0,77,0.00,,,-99.99,0.000000,,2013-05-30 06:42:00,
2013-05-30 02:52:00,79.0,71.0,-100.00,ESE,115,11.0,-999.0,77,0.00,,,-99.99,0.000000,,2013-05-30 06:52:00,
2013-05-30 03:01:00,79.0,72.0,-100.00,ESE,113,12.0,-999.0,77,0.00,,,-99.99,0.000000,,2013-05-30 07:01:00,
2013-05-30 03:12:00,79.0,70.0,-100.00,ESE,116,14.0,-999.0,73,0.00,,,-99.99,0.000000,,2013-05-30 07:12:00,
2013-05-30 03:22:00,79.0,70.0,-100.00,ESE,116,14.0,-999.0,73,0.00,,,-99.99,0.000000,,2013-05-30 07:22:00,
2013-05-30 03:32:00,79.0,71.0,-100.00,ESE,115,11.0,-999.0,75,0.00,,,-99.99,0.000000,,2013-05-30 07:32:00,
2013-05-30 03:42:00,79.0,71.0,-100.00,ESE,114,11.0,-999.0,76,0.00,,,-99.99,0.000000,,2013-05-30 07:42:00,
2013-05-30 03:52:00,79.0,71.0,-100.00,ESE,114,11.0,-999.0,76,0.00,,,-99.99,0.000000,,2013-05-30 07:52:00,
2013-05-30 04:02:00,79.0,71.0,-100.00,ESE,112,11.0,-999.0,75,0.00,,,-99.99,0.000000,,2013-05-30 08:02:00,
2013-05-30 04:11:00,78.0,70.0,-100.00,ESE,116,11.0,-999.0,76,0.00,,,-99.99,0.000000,,2013-05-30 08:11:00,
2013-05-30 04:22:00,78.0,70.0,-100.00,ESE,116,11.0,-999.0,76,0.00,,,-99.99,0.000000,,2013-05-30 08:22:00,
2013-05-30 04:32:00,79.0,72.0,-100.00,ESE,118,11.0,-999.0,79,0.00,,,-99.99,0.000000,,2013-05-30 08:32:00,
2013-05-30 04:42:00,79.0,72.0,-100.00,ESE,117,11.0,-999.0,80,0.00,,,-99.99,0.000000,,2013-05-30 08:42:00,
2013-05-30 04:53:00,79.0,72.0,-100.00,ESE,117,11.0,-999.0,80,0.00,,,-99.99,0.000000,,2013-05-30 08:53:00,
2013-05-30 05:01:00,79.0,70.0,-100.00,ESE,117,12.0,-999.0,73,0.00,,,-99.99,0.000000,,2013-05-30 09:01:00,
2013-05-30 05:11:00,79.0,70.0,-100.00,ESE,117,12.0,-999.0,73,0.00,,,-99.99,0.000000,,2013-05-30 09:11:00,
2013-05-30 05:21:00,79.0,70.0,-100.00,ESE,118,11.0,-999.0,74,0.00,,,-99.99,0.000000,,2013-05-30 09:21:00,
2013-05-30 05:33:00,79.0,70.0,-100.00,ESE,113,10.0,-999.0,73,0.00,,,-99.99,0.000000,,2013-05-30 09:33:00,
2013-05-30 05:43:00,79.0,71.0,-100.00,ESE,114,10.0,-999.0,76,0.00,,,-99.99,0.000000,,2013-05-30 09:43:00,
2013-05-30 05:53:00,79.0,71.0,-100.00,ESE,114,10.0,-999.0,76,0.00,,,-99.99,0.000000,,2013-05-30 09:53:00,
2013-05-30 06:03:00,79.0,71.0,-100.00,ESE,113,11.0,-999.0,76,0.00,,,-99.99,0.000000,,2013-05-30 10:03:00,
2013-05-30 06:13:00,79.0,71.0,-100.00,ESE,113,10.0,-999.0,78,0.00,,,-99.99,0.000000,,2013-05-30 10:13:00,
2013-05-30 06:23:00,79.0,71.0,-100.00,ESE,113,10.0,-999.0,78,0.00,,,-99.99,0.000000,,2013-05-30 10:23:00,
2013-05-30 06:32:00,79.0,72.0,-100.00,ESE,107,11.0,-999.0,79,0.00,,,-99.99,0.000000,,2013-05-30 10:32:00,
2013-05-30 06:42:00,79.0,73.0,-100.00,ESE,107,10.0,-999.0,81,0.00,,,-99.99,0.300000,,2013-05-30 10:42:00,
2013-05-30 06:52:00,79.0,73.0,-100.00,ESE,107,10.0,-999.0,81,0.00,,,-99.99,0.300000,,2013-05-30 10:52:00,
2013-05-30 07:03:00,78.0,73.0,-100.00,ESE,114,12.0,-999.0,83,0.08,,,-99.99,4.400000,,2013-05-30 11:03:00,
2013-05-30 07:12:00,77.0,72.0,-100.00,ESE,114,10.0,-999.0,87,0.00,,,-99.99,10.700000,,2013-05-30 11:12:00,
2013-05-30 07:22:00,77.0,72.0,-100.00,ESE,114,10.0,-999.0,87,0.00,,,-99.99,10.700000,,2013-05-30 11:22:00,
2013-05-30 07:32:00,77.0,73.0,-100.00,ESE,116,11.0,-999.0,86,0.00,,,-99.99,14.600000,,2013-05-30 11:32:00,
2013-05-30 07:42:00,78.0,74.0,-100.00,ESE,114,10.0,-999.0,86,0.00,,,-99.99,29.400000,,2013-05-30 11:42:00,
2013-05-30 07:52:00,78.0,74.0,-100.00,ESE,114,10.0,-999.0,86,0.00,,,-99.99,29.400000,,2013-05-30 11:52:00,
2013-05-30 08:01:00,79.0,74.0,-100.00,ESE,116,10.0,-999.0,86,0.00,,,-99.99,62.500000,,2013-05-30 12:01:00,
2013-05-30 08:11:00,80.0,75.0,-100.00,ESE,116,12.0,-999.0,84,0.00,,,-99.99,209.899994,,2013-05-30 12:11:00,
2013-05-30 08:22:00,80.0,75.0,-100.00,ESE,116,12.0,-999.0,84,0.00,,,-99.99,209.899994,,2013-05-30 12:22:00,
2013-05-30 08:32:00,80.0,74.0,-100.00,ESE,113,12.0,-999.0,83,0.00,,,-99.99,251.600006,,2013-05-30 12:32:00,
2013-05-30 08:42:00,80.0,74.0,-100.00,ESE,112,15.0,-999.0,82,0.00,,,-99.99,325.299988,,2013-05-30 12:42:00,
2013-05-30 08:52:00,80.0,74.0,-100.00,ESE,112,15.0,-999.0,82,0.00,,,-99.99,325.299988,,2013-05-30 12:52:00,
2013-05-30 09:01:00,80.0,75.0,-100.00,ESE,120,12.0,-999.0,83,0.00,,,-99.99,397.500000,,2013-05-30 13:01:00,
2013-05-30 09:11:00,80.0,74.0,-100.00,ESE,122,12.0,-999.0,83,0.00,,,-99.99,229.899994,,2013-05-30 13:11:00,
2013-05-30 09:22:00,80.0,74.0,-100.00,ESE,122,12.0,-999.0,83,0.00,,,-99.99,229.899994,,2013-05-30 13:22:00,
2013-05-30 09:32:00,80.0,74.0,-100.00,ESE,121,11.0,-999.0,82,0.00,,,-99.99,314.500000,,2013-05-30 13:32:00,
2013-05-30 09:42:00,80.0,75.0,-100.00,ESE,119,9.0,-999.0,82,0.00,,,-99.99,228.500000,,2013-05-30 13:42:00,
2013-05-30 09:52:00,80.0,75.0,-100.00,ESE,119,9.0,-999.0,82,0.00,,,-99.99,228.500000,,2013-05-30 13:52:00,
2013-05-30 10:01:00,80.0,75.0,-100.00,ESE,112,12.0,-999.0,83,0.00,,,-99.99,285.799988,,2013-05-30 14:01:00,
2013-05-30 10:11:00,82.0,76.0,-100.00,ESE,106,13.0,-999.0,82,0.00,,,-99.99,530.599976,,2013-05-30 14:11:00,
2013-05-30 10:22:00,82.0,76.0,-100.00,ESE,106,13.0,-999.0,82,0.00,,,-99.99,530.599976,,2013-05-30 14:22:00,
2013-05-30 10:32:00,82.0,75.0,-100.00,ESE,115,13.0,-999.0,80,0.00,,,-99.99,401.500000,,2013-05-30 14:32:00,
2013-05-30 10:42:00,82.0,75.0,-100.00,ESE,115,12.0,-999.0,79,0.00,,,-99.99,588.299988,,2013-05-30 14:42:00,
2013-05-30 10:52:00,82.0,75.0,-100.00,ESE,115,12.0,-999.0,79,0.00,,,-99.99,588.299988,,2013-05-30 14:52:00,
2013-05-30 11:01:00,82.0,75.0,-100.00,ESE,120,14.0,-999.0,77,0.00,,,-99.99,696.599976,,2013-05-30 15:01:00,
2013-05-30 11:11:00,83.0,75.0,-100.00,ESE,118,14.0,-999.0,77,0.00,,,-99.99,700.000000,,2013-05-30 15:11:00,
2013-05-30 11:22:00,83.0,75.0,-100.00,ESE,118,14.0,-999.0,77,0.00,,,-99.99,700.000000,,2013-05-30 15:22:00,
2013-05-30 11:33:00,82.0,75.0,-100.00,ESE,105,13.0,-999.0,79,0.00,,,-99.99,457.399994,,2013-05-30 15:33:00,
2013-05-30 11:42:00,82.0,75.0,-100.00,ESE,109,16.0,-999.0,79,0.00,,,-99.99,397.500000,,2013-05-30 15:42:00,
2013-05-30 11:53:00,82.0,75.0,-100.00,ESE,109,16.0,-999.0,79,0.00,,,-99.99,397.500000,,2013-05-30 15:53:00,
2013-05-30 12:03:00,82.0,75.0,-100.00,ESE,117,13.0,-999.0,79,0.00,,,-99.99,548.099976,,2013-05-30 16:03:00,
2013-05-30 12:12:00,83.0,75.0,-100.00,ESE,113,13.0,-999.0,76,0.00,,,-99.99,613.400024,,2013-05-30 16:12:00,
2013-05-30 12:23:00,83.0,75.0,-100.00,ESE,113,13.0,-999.0,76,0.00,,,-99.99,613.400024,,2013-05-30 16:23:00,
2013-05-30 12:33:00,82.0,75.0,-100.00,ESE,112,15.0,-999.0,79,0.00,,,-99.99,552.099976,,2013-05-30 16:33:00,
2013-05-30 12:42:00,83.0,75.0,-100.00,ESE,123,12.0,-999.0,77,0.00,,,-99.99,470.899994,,2013-05-30 16:42:00,
2013-05-30 12:53:00,83.0,75.0,-100.00,ESE,123,12.0,-999.0,77,0.00,,,-99.99,470.899994,,2013-05-30 16:53:00,
2013-05-30 13:02:00,84.0,75.0,-100.00,SE,126,13.0,-999.0,75,0.00,,,-99.99,624.200012,,2013-05-30 17:02:00,
2013-05-30 13:12:00,83.0,76.0,-100.00,ESE,106,13.0,-999.0,77,0.00,,,-99.99,465.600006,,2013-05-30 17:12:00,
2013-05-30 13:22:00,83.0,76.0,-100.00,ESE,106,13.0,-999.0,77,0.00,,,-99.99,465.600006,,2013-05-30 17:22:00,
2013-05-30 13:32:00,81.0,75.0,-100.00,ESE,120,15.0,-999.0,80,0.00,,,-99.99,427.500000,,2013-05-30 17:32:00,
2013-05-30 13:42:00,81.0,76.0,-100.00,ESE,118,10.0,-999.0,85,0.00,,,-99.99,659.200012,,2013-05-30 17:42:00,
2013-05-30 13:52:00,81.0,76.0,-100.00,ESE,118,10.0,-999.0,85,0.00,,,-99.99,659.200012,,2013-05-30 17:52:00,
2013-05-30 14:02:00,82.0,77.0,-100.00,ESE,112,12.0,-999.0,83,0.00,,,-99.99,611.900024,,2013-05-30 18:02:00,
2013-05-30 14:11:00,83.0,76.0,-100.00,ESE,112,12.0,-999.0,79,0.00,,,-99.99,591.700012,,2013-05-30 18:11:00,
2013-05-30 14:22:00,83.0,76.0,-100.00,ESE,112,12.0,-999.0,79,0.00,,,-99.99,591.700012,,2013-05-30 18:22:00,
2013-05-30 14:32:00,83.0,75.0,-100.00,ESE,123,13.0,-999.0,78,0.08,,,-99.99,400.299988,,2013-05-30 18:32:00,
2013-05-30 14:43:00,79.0,75.0,-100.00,SE,126,12.0,-999.0,87,0.41,,,-99.99,180.600006,,2013-05-30 18:43:00,
2013-05-30 14:52:00,79.0,75.0,-100.00,SE,126,12.0,-999.0,87,0.41,,,-99.99,180.600006,,2013-05-30 18:52:00,
2013-05-30 15:01:00,79.0,76.0,-100.00,ESE,114,11.0,-999.0,91,0.14,,,-99.99,269.899994,,2013-05-30 19:01:00,
2013-05-30 15:12:00,78.0,76.0,-100.00,ESE,117,8.0,-999.0,91,0.00,,,-99.99,249.300003,,2013-05-30 19:12:00,
2013-05-30 15:23:00,78.0,76.0,-100.00,ESE,117,8.0,-999.0,91,0.00,,,-99.99,249.300003,,2013-05-30 19:23:00,
2013-05-30 15:32:00,79.0,76.0,-100.00,ESE,114,11.0,-999.0,91,0.00,,,-99.99,254.699997,,2013-05-30 19:32:00,
2013-05-30 15:42:00,80.0,76.0,-100.00,ESE,112,12.0,-999.0,89,0.00,,,-99.99,458.399994,,2013-05-30 19:42:00,
2013-05-30 15:53:00,80.0,76.0,-100.00,ESE,112,12.0,-999.0,89,0.00,,,-99.99,458.399994,,2013-05-30 19:53:00,
2013-05-30 16:01:00,81.0,76.0,-100.00,ESE,103,13.0,-999.0,85,0.00,,,-99.99,538.299988,,2013-05-30 20:01:00,
2013-05-30 16:11:00,82.0,76.0,-100.00,ESE,105,14.0,-999.0,82,0.00,,,-99.99,625.799988,,2013-05-30 20:11:00,
2013-05-30 16:22:00,82.0,76.0,-100.00,ESE,105,14.0,-999.0,82,0.00,,,-99.99,625.799988,,2013-05-30 20:22:00,
2013-05-30 16:33:00,81.0,75.0,-100.00,ESE,113,13.0,-999.0,82,0.00,,,-99.99,396.100006,,2013-05-30 20:33:00,
2013-05-30 16:42:00,80.0,75.0,-100.00,ESE,106,17.0,-999.0,84,0.00,,,-99.99,310.000000,,2013-05-30 20:42:00,
2013-05-30 16:52:00,80.0,75.0,-100.00,ESE,106,17.0,-999.0,84,0.00,,,-99.99,310.000000,,2013-05-30 20:52:00,
2013-05-30 17:01:00,80.0,75.0,-100.00,ESE,108,16.0,-999.0,84,0.00,,,-99.99,239.100006,,2013-05-30 21:01:00,
2013-05-30 17:11:00,79.0,75.0,-100.00,ESE,112,16.0,-999.0,86,0.00,,,-99.99,188.699997,,2013-05-30 21:11:00,
2013-05-30 17:22:00,79.0,75.0,-100.00,ESE,112,16.0,-999.0,86,0.00,,,-99.99,188.699997,,2013-05-30 21:22:00,
2013-05-30 17:33:00,80.0,75.0,-100.00,ESE,112,13.0,-999.0,83,0.00,,,-99.99,210.600006,,2013-05-30 21:33:00,
2013-05-30 17:43:00,80.0,74.0,-100.00,ESE,109,13.0,-999.0,82,0.00,,,-99.99,131.300003,,2013-05-30 21:43:00,
2013-05-30 17:53:00,80.0,74.0,-100.00,ESE,109,13.0,-999.0,82,0.00,,,-99.99,131.300003,,2013-05-30 21:53:00,
2013-05-30 18:02:00,80.0,73.0,-100.00,ESE,109,13.0,-999.0,79,0.00,,,-99.99,176.000000,,2013-05-30 22:02:00,
2013-05-30 18:12:00,81.0,74.0,-100.00,ESE,113,14.0,-999.0,79,0.00,,,-99.99,251.500000,,2013-05-30 22:12:00,
2013-05-30 18:23:00,81.0,74.0,-100.00,ESE,113,14.0,-999.0,79,0.00,,,-99.99,251.500000,,2013-05-30 22:23:00,
2013-05-30 18:33:00,81.0,74.0,-100.00,ESE,114,15.0,-999.0,78,0.00,,,-99.99,232.100006,,2013-05-30 22:33:00,
2013-05-30 18:42:00,81.0,73.0,-100.00,ESE,118,14.0,-999.0,78,0.00,,,-99.99,173.500000,,2013-05-30 22:42:00,
2013-05-30 18:52:00,81.0,73.0,-100.00,ESE,118,14.0,-999.0,78,0.00,,,-99.99,173.500000,,2013-05-30 22:52:00,
2013-05-30 19:02:00,80.0,73.0,-100.00,ESE,119,15.0,-999.0,79,0.00,,,-99.99,104.199997,,2013-05-30 23:02:00,
2013-05-30 19:11:00,80.0,74.0,-100.00,ESE,118,12.0,-999.0,80,0.00,,,-99.99,125.599998,,2013-05-30 23:11:00,
2013-05-30 19:22:00,80.0,74.0,-100.00,ESE,118,12.0,-999.0,80,0.00,,,-99.99,125.599998,,2013-05-30 23:22:00,
2013-05-30 19:32:00,80.0,74.0,-100.00,ESE,117,12.0,-999.0,81,0.00,,,-99.99,81.199997,,2013-05-30 23:32:00,
2013-05-30 19:42:00,80.0,73.0,-100.00,ESE,111,12.0,-999.0,80,0.00,,,-99.99,30.600000,,2013-05-30 23:42:00,
2013-05-30 19:52:00,80.0,73.0,-100.00,ESE,111,12.0,-999.0,80,0.00,,,-99.99,30.600000,,2013-05-30 23:52:00,
2013-05-30 20:01:00,80.0,73.0,-100.00,ESE,119,12.0,-999.0,77,0.00,,,-99.99,13.100000,,2013-05-31 00:01:00,
2013-05-30 20:11:00,80.0,72.0,-100.00,ESE,118,13.0,-999.0,77,0.00,,,-99.99,8.200000,,2013-05-31 00:11:00,
2013-05-30 20:22:00,80.0,72.0,-100.00,ESE,118,13.0,-999.0,77,0.00,,,-99.99,8.200000,,2013-05-31 00:22:00,
2013-05-30 20:32:00,79.0,70.0,-100.00,ESE,116,11.0,-999.0,74,0.00,,,-99.99,0.400000,,2013-05-31 00:32:00,
2013-05-30 20:42:00,80.0,72.0,-100.00,ESE,112,12.0,-999.0,76,0.00,,,-99.99,0.000000,,2013-05-31 00:42:00,
2013-05-30 20:52:00,80.0,72.0,-100.00,ESE,112,12.0,-999.0,76,0.00,,,-99.99,0.000000,,2013-05-31 00:52:00,
2013-05-30 21:01:00,78.0,70.0,-100.00,ESE,115,8.0,-999.0,75,0.00,,,-99.99,0.000000,,2013-05-31 01:01:00,
2013-05-30 21:12:00,79.0,72.0,-100.00,ESE,113,9.0,-999.0,77,0.00,,,-99.99,0.000000,,2013-05-31 01:12:00,
2013-05-30 21:21:00,79.0,72.0,-100.00,ESE,113,9.0,-999.0,77,0.00,,,-99.99,0.000000,,2013-05-31 01:21:00,
2013-05-30 21:32:00,79.0,72.0,-100.00,ESE,114,9.0,-999.0,77,0.00,,,-99.99,0.000000,,2013-05-31 01:32:00,
2013-05-30 21:42:00,78.0,70.0,-100.00,ESE,109,10.0,-999.0,75,0.00,,,-99.99,0.000000,,2013-05-31 01:42:00,
2013-05-30 21:52:00,78.0,70.0,-100.00,ESE,109,10.0,-999.0,75,0.00,,,-99.99,0.000000,,2013-05-31 01:52:00,
2013-05-30 22:02:00,79.0,72.0,-100.00,ESE,108,9.0,-999.0,78,0.00,,,-99.99,0.000000,,2013-05-31 02:02:00,
2013-05-30 22:11:00,79.0,72.0,-100.00,ESE,107,10.0,-999.0,79,0.00,,,-99.99,0.000000,,2013-05-31 02:11:00,
2013-05-30 22:22:00,79.0,72.0,-100.00,ESE,107,10.0,-999.0,79,0.00,,,-99.99,0.000000,,2013-05-31 02:22:00,
2013-05-30 22:32:00,79.0,73.0,-100.00,ESE,108,10.0,-999.0,81,0.00,,,-99.99,0.000000,,2013-05-31 02:32:00,
2013-05-30 22:42:00,79.0,73.0,-100.00,ESE,108,10.0,-999.0,82,0.00,,,-99.99,0.000000,,2013-05-31 02:42:00,
2013-05-30 22:52:00,79.0,73.0,-100.00,ESE,108,10.0,-999.0,82,0.00,,,-99.99,0.000000,,2013-05-31 02:52:00,
2013-05-30 23:01:00,79.0,74.0,-100.00,ESE,106,10.0,-999.0,84,0.00,,,-99.99,0.000000,,2013-05-31 03:01:00,
2013-05-30 23:11:00,79.0,74.0,-100.00,ESE,113,10.0,-999.0,84,0.00,,,-99.99,0.000000,,2013-05-31 03:11:00,
2013-05-30 23:21:00,79.0,74.0,-100.00,ESE,113,10.0,-999.0,84,0.00,,,-99.99,0.000000,,2013-05-31 03:21:00,
2013-05-30 23:33:00,79.0,74.0,-100.00,ESE,118,11.0,-999.0,83,0.00,,,-99.99,0.000000,,2013-05-31 03:33:00,
2013-05-30 23:43:00,78.0,73.0,-100.00,ESE,115,9.0,-999.0,83,0.00,,,-99.99,0.000000,,2013-05-31 03:43:00,
2013-05-30 23:53:00,78.0,73.0,-100.00,ESE,115,9.0,-999.0,83,0.00,,,-99.99,0.000000,,2013-05-31 03:53:00,